Deer Lodge (38S)
Deer Lodge, MT
Field Elevation: 4692
Lat: 49°23.27N  Long: 112°45.89W
CTAF/Unicom Freq: 120.0250
   
     For Weather-by-Phone, call 406-846-1177
Weather Advisories
10/2/2014 14:25 Z
Altimeter 30.13" Hg
Wind 040° @ 0 KT
Gusts --
Visibility 10 SM
Temperature 3° C (37° F)
Dewpoint -1° C (30° F)
Relative Humidity 77%
Density Altitude --
Condensation Altitude 6,400 feet
  Wind and Runways
Indicated Runway = 13
History
 
 
More Info
All DigiWx sites map
Weather Radar
NOAA Forecast
 
Airport IQ 5010
(S59) Libby
(6S5) Ravalli County
 
about DigiWx
 
FAA Disclaimer: The data displayed is for advisory purposes only and is not to be used for flight planning or operations. For official data, please call 406-846-1177 to hear the current automated AWOS voice message.
  METAR 38S 021425Z AUTO 04000KT 10SM 03/M01 A3013